Hourly Weather Roundup
Issued by NWS Central Illinois

Home | Current Version | Previous Version | Text Only | Print | Product List | Glossary On
Versions: 1 2 3 4 5 6 7 8 9 10 11 12 13 14 15 16 17 18 19 20 21 22 23 24 25 26 27 28 29 30 31 32 33 34 35 36 37 38 39 40 41 42 43 44 45 46 47 48 49 50
000
NZUS43 KILX 250910
HWRILX

AREA WEATHER ROUNDUP
NATIONAL WEATHER SERVICE, LINCOLN IL
300 AM CST THU DEC 25 2014


CITY           SKY/WX    TMP DP  RH WIND       PRES   REMARKS
BLOOMINGTON    CLOUDY    35  31  86 W14       29.85R WCI  26
CHAMPAIGN      CLOUDY    35  32  88 W13       29.87R WCI  26
DECATUR        CLOUDY    36  31  82 W9        29.89R WCI  29
FLORA          CLEAR     37  33  83 W7        29.94R WCI  32
GALESBURG      CLOUDY    33  30  88 SW10G21   29.82S WCI  25
JACKSONVILLE   CLOUDY    38  32  81 SW8       29.89R WCI  32
LACON          CLOUDY    35  29  78 SW8       29.82R WCI  28
LAWRENCEVILLE  CLOUDY    38  32  79 W8        29.94R WCI  32
LITCHFIELD     CLOUDY    35  31  85 SW6       29.91R WCI  30
$$


CITY           SKY/WX    TMP DP  RH WIND       PRES   REMARKS
LINCOLN        DRIZZLE   36  33  87 SW6       29.88R WCI  31
MACOMB         CLOUDY    34  31  90 W15       29.87R WCI  24
MATTOON        FLURRIES  35  32  88 W9        29.89R WCI  28
MT CARMEL AP   CLOUDY    39  34  81 W8        29.94R WCI  34
OLNEY-NOBLE AP CLOUDY    36  32  87 W6        29.94R WCI  31
PARIS          CLOUDY    36  34  92 W8        29.89R WCI  30
PEORIA         CLOUDY    36  28  73 W12       29.85R WCI  28
PONTIAC        CLOUDY    35  32  88 W13       29.83R WCI  27
RANTOUL        CLOUDY    37  32  84 W12       29.85R WCI  29
ROBINSON       CLOUDY    37  34  89 W9        29.93R WCI  30
SPRINGFIELD    CLOUDY    36  32  85 W7        29.89R WCI  30
TAYLORVILLE    CLOUDY    34  32  93 SW10      29.90R WCI  26
$$

...REGIONAL REPORTS...


CITY           SKY/WX    TMP DP  RH WIND       PRES   REMARKS
CHICAGO O`HARE CLOUDY    36  30  79 W15       29.74R WCI  27
KANKAKEE       CLOUDY    35  32  88 W15G22    29.81R WCI  25
MOLINE         FLURRIES  34  28  79 SW15      29.81R WCI  24
MOUNT VERNON   CLOUDY    37  32  81 W7        29.96R WCI  32
PITTSFIELD     CLOUDY    37  31  80 SW8       29.90R WCI  30
QUINCY         CLOUDY    35  28  75 W17G24    29.87R WCI  25
ROCKFORD       CLOUDY    34  29  82 W14       29.77R WCI  25
$$


CITY           SKY/WX    TMP DP  RH WIND       PRES   REMARKS
BURLINGTON     CLOUDY    34  29  82 W12       29.83R WCI  25
CEDAR RAPIDS   CLOUDY    31  28  89 SW15      29.77R WCI  20
DES MOINES     PTCLDY    32  28  85 S9        29.75R WCI  24
KIRKSVILLE     PTCLDY    32  30  92 S7        29.84R WCI  26
OTTUMWA        CLOUDY    32  28  85 SW12      29.79R WCI  23
ST LOUIS       CLOUDY    39  30  70 W12       29.93R WCI  32
$$


CITY           SKY/WX    TMP DP  RH WIND       PRES   REMARKS
TERRE HAUTE    CLOUDY    37  32  82 W12       29.90R WCI  29
EVANSVILLE     CLOUDY    40  34  79 SW6       29.97R
INDIANAPOLIS   CLOUDY    34  33  96 W12       29.85R WCI  25
LAFAYETTE      CLOUDY    36  32  85 W12       29.82R WCI  28
MADISON        CLOUDY    34  28  79 VRB5      29.70R WCI  30
MILWAUKEE      MOCLDY    36  29  75 W12       29.70R WCI  28
$$




USA.gov is the U.S. government's official web portal to all federal, state and local government web resources and services.